Dewpoint
5 -2 -9 -11 -13 -14 -17 -16 -12 -7 -3 0 3 -1 2 3 -0 -6 -6 -8 -11 -12 -7 5 1 -7 -13 -20 -18 -11 -11 -19 -19 -21 -23 -24 -24 -23 -22 -22 -20 -20 -19
4 -1 -7 -8 -12 -14 -17 -16 -12 -8 -3 -2 1 1 0 2 -1 -7 -4 -9 -13 -14 -17 -15 -7 -12 -9 -8 -6 -3 -2 -0 -1 -4 -4 -8 -10 -12 -13 -11 -10 -8 -9
4 0 -4 -4 -12 -14 -12 -10 -6 -7 -8 -6 -0 1 -1 1 -2 -9 -7 -11 -14 -17 -19 -22 -23 -17 -8 2 3 3 2 2 -1 -3 -9 -10 -8 -10 -14 -16 -12 -8 -6
6 4 -1 -5 -9 -9 -6 -5 -6 -8 -8 -8 -5 -1 -1 -2 -2 -5 -5 -9 -11 -14 -21 -23 -25 -25 -18 -3 3 3 3 3 1 -3 -6 -11 -13 -12 -9 -7 -3 -5 -6
7 5 -0 -4 -4 -5 -3 -4 -5 -7 -5 -5 -4 -1 0 -2 -2 -3 -6 -9 -11 -11 -14 -18 -18 -23 -23 -18 -1 2 2 -0 -7 -8 -10 -9 -7 -5 -7 -7 -8 -5 -4
6 4 1 -0 -2 -3 -3 -4 -4 -3 -5 -5 -3 -0 1 1 1 -2 -5 -7 -10 -12 -16 -17 -14 -20 -20 -22 -13 1 0 -4 -10 -9 -6 -4 -14 -14 -13 -9 -10 -8 -6
4 3 3 1 -2 -3 -5 -4 -3 -2 -1 -3 -1 0 -2 -3 -3 -4 -3 -4 -10 -13 -15 -13 -14 -19 -19 -19 -22 -21 -10 -6 -0 -7 -16 -13 -15 -13 -14 -14 -10 -8 -9
7 4 2 -0 -2 -3 -4 -4 -4 -1 -1 -2 -2 -3 -0 -1 -1 -1 -2 -3 -7 -12 -15 -9 -9 -19 -20 -20 -20 -25 -22 -14 -13 -20 -16 -17 -19 -18 -17 -18 -16 -10 -9
7 4 1 -1 -2 -4 -4 -5 -4 -4 -2 -1 -4 -6 -1 -1 -1 -1 -1 -2 -6 -11 -14 -8 -9 -17 -19 -19 -19 -24 -26 -24 -25 -24 -21 -21 -24 -24 -25 -23 -15 -13 -11
7 5 1 0 -1 -3 -4 -6 -4 -4 -5 -3 -2 -8 -9 -10 -2 -2 -2 -2 -5 -7 -8 -13 -11 -18 -19 -20 -21 -25 -26 -27 -27 -27 -26 -26 -27 -26 -26 -24 -23 -18 -10
6 5 2 0 1 -2 -4 -6 -4 -3 -5 -6 -6 -7 -8 -7 -9 -6 -3 -4 -3 -4 -6 -11 -13 -18 -20 -19 -21 -25 -26 -27 -27 -27 -27 -27 -27 -28 -28 -27 -26 -23 -18
6 4 3 -0 1 -0 -3 -6 -7 -5 -5 -4 -6 -7 -9 -7 -6 -8 -8 -3 -3 -3 -5 -7 -12 -18 -19 -20 -20 -23 -26 -26 -27 -27 -26 -27 -28 -28 -28 -29 -30 -28 -21
5 5 3 1 0 0 -2 -5 -5 -5 -4 -5 -6 -9 -8 -7 -8 -8 -11 -4 -3 -3 -4 -7 -14 -18 -18 -18 -17 -23 -26 -25 -26 -26 -26 -27 -28 -28 -29 -32 -33 -34 -33
7 6 4 2 1 1 -1 -4 -4 -5 -5 -6 -6 -9 -6 -6 -6 -8 -10 -8 -4 -5 -5 -9 -9 -14 -18 -18 -19 -25 -23 -23 -26 -26 -26 -27 -27 -29 -31 -33 -36 -37 -38
5 6 4 4 2 1 -0 -2 -4 -5 -5 -6 -7 -8 -6 -4 -7 -7 -8 -9 -10 -5 -6 -7 -10 -12 -17 -18 -21 -23 -19 -22 -25 -25 -26 -27 -28 -31 -32 -34 -38 -39 -40
5 5 5 4 3 1 0 -1 -3 -3 -2 -1 -1 -4 -5 -8 -9 -10 -8 -8 -8 -9 -5 -5 -6 -9 -14 -18 -21 -23 -21 -22 -23 -24 -26 -28 -30 -32 -34 -36 -39 -40 -41
5 4 5 4 3 2 1 -0 -2 -2 -1 -2 -3 -6 -9 -12 -8 -7 -7 -6 -6 -6 -7 -6 -6 -8 -12 -18 -21 -23 -20 -18 -21 -24 -26 -30 -32 -33 -36 -37 -40 -40 -40
4 4 4 4 4 3 1 1 1 -1 -2 -1 -3 -5 -8 -7 -7 -7 -6 -4 -3 -4 -6 -8 -6 -8 -14 -19 -20 -19 -18 -18 -19 -21 -28 -32 -31 -32 -33 -36 -40 -40 -39
4 3 3 3 3 3 2 1 0 -1 -2 -3 -2 -4 -6 -9 -7 -2 0 1 -3 -6 -6 -6 -7 -11 -15 -17 -15 -17 -18 -18 -17 -19 -28 -30 -26 -30 -29 -36 -40 -39 -38
4 3 3 2 2 2 1 1 -0 -1 -2 -2 -3 -6 -9 -2 -1 1 1 -2 -5 -7 -8 -8 -10 -12 -16 -15 -16 -15 -16 -15 -14 -17 -21 -22 -23 -25 -32 -34 -34 -36 -37
4 3 2 2 2 2 1 1 0 -1 -1 -3 -4 -7 -1 1 0 0 0 -11 -9 -10 -10 -9 -11 -13 -13 -15 -16 -13 -12 -11 -12 -13 -14 -16 -19 -21 -30 -32 -24 -34 -36
4 3 2 2 2 2 1 0 -1 -1 -5 -5 -5 -0 -0 -0 -0 -0 -10 -12 -10 -11 -11 -10 -12 -15 -16 -17 -14 -13 -12 -11 -11 -13 -10 -17 -20 -22 -23 -26 -22 -31 -35
4 3 3 2 2 1 0 -0 -2 -4 -4 -2 -1 -0 -0 -1 -1 -11 -15 -13 -12 -11 -12 -15 -16 -17 -17 -17 -16 -15 -15 -16 -16 -14 -13 -25 -28 -25 -17 -20 -25 -27 -31
3 2 2 1 1 0 -0 -1 -2 -2 -2 -2 -2 -1 -1 -0 -5 -13 -11 -12 -13 -12 -11 -12 -14 -16 -16 -17 -16 -17 -19 -20 -17 -15 -20 -30 -27 -19 -18 -22 -21 -20 -21
2 2 1 1 0 -0 -1 -1 -1 -2 -3 -2 -2 -2 -2 -1 -5 -13 -9 -12 -14 -14 -11 -11 -12 -12 -13 -14 -19 -23 -24 -25 -24 -26 -26 -31 -32 -27 -21 -17 -14 -16 -16
2 2 1 1 0 -0 -0 -1 -1 -2 -2 -2 -2 -3 -3 -4 -10 -14 -11 -12 -15 -16 -15 -12 -11 -11 -12 -17 -24 -26 -27 -29 -27 -20 -20 -24 -29 -25 -17 -11 -11 -15 -13
Wind_Speed
33 30 27 26 25 24 25 26 25 23 20 23 24 18 15 11 7 11 10 7 4 4 7 13 8 8 9 8 8 8 9 9 9 9 10 11 12 12 13 14 14 14 13
33 31 30 28 28 27 27 25 24 22 23 24 25 21 17 12 10 10 11 9 5 4 4 5 5 7 10 11 12 12 12 13 13 13 14 15 15 16 16 15 15 15 15
36 32 31 29 30 30 28 26 23 24 26 26 25 23 19 14 11 12 13 9 8 7 5 4 3 5 10 14 14 13 13 14 14 14 15 15 15 15 15 15 15 16 17
39 34 33 32 32 31 29 28 27 28 25 25 26 24 21 17 15 14 12 11 9 7 7 4 3 4 5 11 14 12 14 14 15 13 12 13 14 15 15 16 17 17 17
41 37 36 34 33 33 33 31 31 28 27 25 23 23 18 15 14 13 12 11 10 8 6 5 5 4 4 6 11 11 12 11 10 11 13 13 14 15 16 16 17 17 18
44 40 38 37 37 36 36 34 32 30 27 27 26 22 18 17 14 11 11 11 9 7 7 5 4 3 3 5 9 11 9 9 8 9 12 11 12 12 12 13 15 16 18
48 45 43 42 42 41 40 38 35 32 29 31 31 22 16 13 12 15 18 16 12 10 8 7 5 3 5 5 3 2 6 7 11 9 9 10 10 11 12 12 14 15 16
48 48 46 47 46 44 42 41 40 39 36 37 34 31 20 17 14 12 14 13 14 13 10 7 7 5 3 2 1 1 1 3 5 7 7 8 10 11 12 15 16 15 14
47 50 47 48 48 45 45 45 46 44 45 41 36 24 18 13 28 20 20 16 14 14 14 14 12 7 4 2 1 1 2 2 5 7 7 8 9 11 13 14 14 16 16
46 51 51 50 49 47 47 47 48 47 46 47 43 34 21 19 23 19 23 19 16 14 12 14 16 11 9 5 2 1 2 3 4 5 6 9 10 12 12 13 14 15 15
47 48 52 52 51 49 49 49 50 51 49 47 47 45 29 20 22 24 30 27 22 19 15 13 14 12 10 5 3 2 1 2 3 4 6 8 9 10 12 13 15 16 16
50 49 52 55 52 51 51 51 52 52 50 49 46 47 40 33 30 25 24 35 31 23 17 15 14 11 11 8 5 3 2 1 2 3 5 6 7 9 12 14 16 17 17
55 53 51 57 55 51 52 51 52 52 53 50 48 45 42 32 28 25 22 38 35 26 18 16 16 15 13 9 6 5 4 2 2 2 3 5 6 9 11 15 16 17 18
56 53 51 54 55 50 52 51 52 52 52 49 48 47 42 35 28 28 27 36 31 26 23 20 18 17 14 10 10 5 5 5 3 3 3 4 6 8 11 14 16 17 16
54 52 50 51 53 51 51 49 50 52 52 51 48 45 41 39 32 30 25 28 31 25 30 25 19 19 17 13 11 7 6 5 4 3 3 4 6 8 12 14 15 16 17
51 50 47 47 50 51 50 47 49 47 49 45 44 40 39 38 36 30 28 28 30 25 25 28 25 18 19 16 13 9 7 6 5 5 4 5 7 9 11 13 14 15 14
47 44 43 43 47 48 49 49 46 43 45 43 38 37 36 36 35 28 24 25 31 23 22 25 21 19 20 19 15 11 9 7 5 4 3 5 7 8 10 11 13 12 11
42 41 40 41 44 45 47 44 43 40 43 43 37 36 38 36 34 31 32 30 26 25 29 26 27 26 22 17 13 12 11 10 5 3 3 4 7 7 7 8 9 10 11
38 38 38 40 39 40 43 42 40 42 41 38 41 42 38 33 26 28 32 29 34 32 27 27 29 28 23 21 17 14 13 10 6 3 4 5 7 7 6 7 6 9 10
34 36 38 38 35 35 39 42 41 42 40 37 42 40 32 26 34 32 30 34 39 32 29 28 29 28 25 21 17 18 17 14 10 6 5 3 6 10 5 6 8 10 10
34 36 37 34 33 34 37 40 42 38 37 43 43 40 35 39 30 27 34 37 34 34 33 32 31 30 29 27 27 23 19 18 12 8 9 6 5 9 9 8 10 10 10
31 34 35 34 33 33 34 35 35 38 43 47 47 43 38 30 31 32 35 34 34 35 35 34 33 32 30 27 29 27 25 22 19 13 13 10 7 8 11 12 12 9 9
30 32 33 33 32 32 33 35 37 43 46 47 46 41 38 34 32 35 35 33 33 31 32 32 31 29 27 28 29 28 25 22 19 12 12 12 10 10 11 12 10 5 7
27 27 30 31 31 31 33 38 44 46 47 44 41 40 38 35 38 40 38 36 34 36 33 31 26 22 23 22 23 21 23 22 19 16 13 13 10 11 11 9 4 4 8
24 27 29 31 30 34 35 37 40 41 40 41 41 40 39 35 33 39 39 39 37 36 34 31 26 24 24 24 23 22 23 24 21 17 15 14 11 11 8 4 1 4 7
22 24 27 29 30 33 36 38 38 37 40 42 40 37 36 29 33 38 39 40 38 37 36 34 31 29 28 26 24 22 20 21 20 16 16 14 12 10 6 6 3 4 7
Wind_Direction
207 202 200 197 194 189 185 184 182 180 176 172 181 195 206 203 186 185 182 174 153 101 91 104 83 57 48 55 55 54 51 38 35 32 27 23 21 17 13 5 4 360 355
210 205 202 196 196 188 190 192 190 189 186 185 184 194 206 205 184 184 189 192 187 178 143 125 94 58 64 62 65 66 70 66 65 45 43 38 32 26 28 19 18 13 9
212 209 207 200 197 189 194 194 194 192 188 184 188 195 201 204 190 172 179 185 179 174 164 163 131 94 86 86 83 81 70 71 65 50 37 36 33 28 21 15 14 14 11
212 210 209 201 196 193 195 196 197 191 188 186 183 192 196 194 185 178 176 176 169 161 167 185 157 116 110 112 95 77 79 74 67 47 48 31 20 18 22 26 17 20 12
210 212 208 202 197 194 199 200 195 197 188 184 184 183 190 196 191 184 182 184 177 168 172 164 140 124 97 103 97 86 82 63 50 34 32 25 36 38 28 20 17 20 16
210 211 207 204 200 198 198 200 197 196 195 182 178 176 177 188 196 208 212 200 193 184 186 167 146 121 110 96 103 107 76 63 29 32 49 45 22 18 15 15 11 15 14
213 209 207 205 204 204 201 199 197 195 185 186 174 168 163 176 192 193 203 214 215 212 201 182 171 172 126 97 62 108 78 61 71 54 14 17 12 14 9 11 14 12 10
218 211 209 206 207 205 203 198 199 189 190 191 183 169 154 168 183 198 212 208 190 197 203 193 197 207 158 89 70 49 91 63 32 355 15 7 8 8 9 10 8 11 13
218 215 213 210 209 209 206 201 200 200 192 195 200 179 158 184 175 184 205 215 216 189 182 193 208 229 241 204 268 332 37 12 356 359 6 12 13 13 10 9 9 2 1
218 218 215 214 213 211 210 203 202 207 206 199 199 203 199 199 179 179 199 213 212 203 198 189 201 204 232 243 214 275 341 347 347 345 360 4 7 8 8 4 2 360 358
219 219 216 215 216 214 213 208 206 210 213 212 206 203 202 199 199 184 180 184 193 210 209 196 203 209 219 216 227 244 285 346 327 354 351 6 3 358 5 358 356 352 351
220 218 217 217 217 217 217 213 213 214 216 215 213 209 209 201 197 193 182 182 184 191 210 219 216 217 227 216 207 225 246 255 320 331 346 352 353 357 354 351 350 346 345
218 217 217 217 219 217 219 218 215 216 217 218 215 215 212 214 214 202 194 183 184 185 190 207 220 227 230 236 220 209 237 233 260 297 330 339 346 350 349 344 346 340 340
223 222 218 219 221 220 220 219 220 219 219 218 217 216 214 212 212 208 196 181 170 177 199 194 203 219 226 223 228 209 218 221 250 283 314 320 337 337 344 343 344 342 341
222 223 220 221 222 223 223 222 223 222 220 219 216 215 215 208 205 206 200 202 201 177 191 200 192 213 220 224 236 215 201 224 247 259 276 303 321 332 344 345 346 342 340
221 223 223 223 225 225 224 223 224 220 220 220 220 215 212 208 207 200 193 205 207 221 191 210 210 213 212 213 219 215 218 233 244 238 260 302 319 340 344 347 347 342 342
223 225 227 226 226 225 224 220 218 219 220 221 220 210 205 199 194 194 197 204 205 212 217 203 204 206 206 209 206 204 223 232 230 243 280 308 323 335 352 351 350 346 355
220 224 222 227 229 226 223 223 219 216 218 215 220 209 205 199 198 195 201 205 200 218 216 198 196 203 207 209 207 199 212 222 222 283 294 303 324 341 349 347 344 6 9
219 219 223 229 231 231 229 224 219 214 213 214 216 212 204 195 190 210 222 221 212 217 214 215 205 200 198 201 196 194 208 220 236 251 291 340 325 341 20 349 4 10 6
222 223 227 229 233 231 227 224 220 217 212 213 209 210 200 207 220 220 226 227 214 217 209 203 198 196 198 199 208 202 199 217 227 231 264 289 322 322 10 2 11 360 6
223 227 227 227 228 230 230 225 222 211 208 201 203 198 210 226 223 224 232 212 207 211 201 196 194 193 192 195 200 196 203 211 213 235 263 264 272 306 333 340 345 339 357
226 226 228 234 236 234 231 225 217 208 206 202 201 212 212 214 224 220 214 207 209 211 202 200 203 204 203 202 203 200 205 204 208 223 233 229 259 290 304 315 308 313 346
224 224 230 232 233 233 228 222 204 204 211 218 218 213 211 211 212 215 210 207 208 209 219 218 215 213 212 206 205 205 210 215 221 215 209 226 244 264 279 284 279 297 342
224 228 228 232 232 235 226 217 213 219 225 218 217 214 217 213 205 212 205 205 204 203 206 216 224 226 219 213 207 213 213 216 218 216 222 229 237 245 269 280 257 346 -0
233 231 234 234 233 232 228 225 224 223 219 219 216 221 220 218 209 213 207 205 202 200 202 210 212 217 214 213 217 212 209 208 207 210 218 225 238 251 261 238 235 7 352
237 234 235 236 234 232 231 230 229 222 219 217 221 223 221 205 214 217 211 209 204 202 207 205 205 209 213 213 213 212 217 212 213 200 211 216 225 224 203 207 256 339 332
Height
1506 1512 1516 1520 1524 1527 1530 1532 1536 1538 1540 1542 1542 1544 1545 1547 1549 1550 1550 1551 1552 1554 1554 1556 1555 1555 1555 1555 1555 1556 1555 1554 1553 1552 1551 1551 1551 1550 1548 1548 1546 1546 1545
1503 1508 1512 1516 1519 1523 1527 1531 1534 1536 1539 1541 1540 1543 1545 1546 1547 1548 1549 1550 1551 1552 1553 1553 1554 1554 1555 1555 1555 1556 1554 1554 1553 1550 1550 1549 1549 1549 1548 1547 1546 1545 1544
1498 1504 1508 1512 1515 1519 1522 1527 1531 1534 1536 1539 1539 1540 1543 1545 1546 1547 1548 1550 1551 1552 1552 1552 1552 1553 1554 1554 1556 1556 1554 1554 1552 1550 1548 1549 1548 1548 1547 1547 1546 1544 1543
1493 1499 1503 1508 1512 1516 1518 1522 1526 1530 1533 1536 1538 1539 1541 1542 1544 1545 1547 1548 1549 1551 1551 1553 1552 1551 1553 1553 1556 1557 1555 1554 1551 1550 1549 1548 1547 1547 1546 1546 1545 1544 1543
1488 1494 1498 1503 1507 1510 1515 1519 1522 1525 1528 1532 1536 1538 1540 1542 1543 1544 1544 1546 1547 1548 1550 1551 1550 1550 1552 1552 1554 1555 1554 1552 1550 1550 1549 1548 1547 1546 1546 1545 1544 1544 1542
1483 1489 1493 1498 1502 1505 1509 1514 1518 1522 1525 1528 1532 1537 1540 1542 1543 1543 1543 1544 1544 1546 1548 1547 1550 1548 1550 1552 1552 1554 1553 1550 1548 1548 1548 1548 1545 1544 1544 1544 1543 1542 1540
1477 1480 1487 1492 1496 1498 1501 1508 1513 1517 1521 1524 1528 1536 1540 1542 1544 1544 1547 1545 1545 1546 1546 1545 1545 1545 1549 1551 1552 1551 1551 1550 1550 1548 1548 1547 1545 1545 1543 1542 1541 1540 1539
1476 1478 1480 1484 1489 1494 1498 1501 1505 1510 1516 1518 1520 1527 1536 1542 1542 1541 1542 1546 1545 1544 1543 1544 1545 1545 1546 1548 1550 1551 1548 1548 1548 1547 1547 1546 1545 1545 1543 1541 1541 1539 1538
1468 1474 1478 1479 1483 1489 1491 1495 1497 1500 1504 1512 1515 1516 1527 1529 1534 1540 1539 1540 1543 1542 1542 1544 1543 1544 1543 1544 1548 1550 1549 1549 1548 1548 1547 1545 1544 1543 1541 1540 1540 1541 1538
1459 1464 1470 1474 1478 1482 1487 1489 1492 1494 1496 1500 1509 1510 1512 1513 1522 1534 1537 1538 1540 1539 1539 1542 1542 1543 1543 1544 1544 1546 1547 1547 1546 1547 1546 1546 1545 1543 1540 1540 1539 1538 1538
1451 1457 1464 1468 1472 1476 1480 1483 1485 1487 1490 1492 1497 1502 1506 1509 1512 1515 1523 1531 1537 1537 1536 1539 1539 1540 1541 1544 1544 1543 1544 1544 1545 1545 1545 1543 1542 1542 1540 1540 1539 1536 1535
1441 1448 1453 1459 1464 1470 1473 1477 1480 1481 1485 1488 1493 1495 1498 1500 1504 1508 1513 1524 1530 1533 1535 1537 1536 1539 1540 1540 1541 1543 1543 1543 1544 1543 1543 1543 1541 1541 1541 1541 1537 1536 1535
1429 1437 1444 1450 1454 1461 1466 1472 1475 1477 1479 1483 1486 1491 1495 1498 1501 1504 1507 1516 1524 1531 1534 1535 1533 1534 1537 1540 1539 1537 1541 1542 1542 1541 1540 1542 1540 1539 1539 1540 1536 1535 1531
1420 1428 1436 1443 1450 1454 1460 1465 1468 1471 1474 1477 1482 1485 1492 1496 1498 1500 1502 1506 1520 1526 1529 1527 1530 1531 1532 1537 1538 1536 1537 1539 1540 1540 1539 1539 1539 1538 1536 1535 1533 1531 1524
1413 1421 1429 1436 1441 1450 1452 1459 1463 1465 1469 1471 1474 1479 1487 1492 1494 1497 1500 1503 1506 1514 1522 1522 1523 1526 1528 1533 1534 1534 1535 1537 1537 1536 1536 1537 1536 1535 1534 1532 1531 1530 1526
1409 1417 1424 1430 1435 1440 1446 1451 1456 1461 1467 1474 1480 1478 1483 1489 1491 1493 1494 1497 1504 1508 1515 1517 1520 1523 1527 1530 1530 1531 1533 1534 1534 1533 1533 1534 1534 1533 1530 1529 1528 1529 1525
1404 1412 1419 1424 1430 1433 1438 1441 1445 1452 1464 1469 1477 1478 1482 1486 1490 1493 1494 1497 1501 1506 1509 1513 1518 1521 1525 1525 1526 1528 1530 1533 1532 1531 1531 1532 1533 1530 1529 1527 1527 1528 1526
1399 1407 1413 1418 1423 1423 1432 1437 1440 1448 1453 1464 1475 1476 1479 1481 1486 1489 1493 1494 1500 1503 1505 1509 1514 1517 1520 1521 1524 1525 1529 1531 1531 1531 1530 1529 1530 1528 1525 1523 1524 1526 1525
1394 1402 1409 1413 1417 1420 1426 1432 1437 1438 1447 1453 1469 1473 1473 1475 1482 1491 1491 1490 1492 1498 1501 1503 1508 1513 1515 1519 1520 1522 1524 1525 1526 1525 1528 1528 1528 1527 1526 1523 1524 1525 1524
1390 1396 1403 1406 1410 1415 1420 1425 1430 1435 1441 1450 1459 1465 1468 1469 1475 1480 1483 1487 1488 1493 1496 1500 1506 1510 1510 1517 1519 1519 1520 1522 1523 1524 1523 1522 1523 1525 1523 1522 1524 1525 1521
1388 1393 1398 1402 1407 1411 1414 1418 1423 1429 1435 1443 1450 1457 1460 1464 1469 1474 1482 1483 1484 1487 1490 1494 1499 1505 1505 1509 1513 1517 1518 1518 1520 1522 1520 1521 1519 1520 1521 1521 1521 1522 1522
1386 1390 1395 1398 1401 1404 1408 1413 1419 1426 1433 1436 1440 1446 1452 1456 1462 1468 1475 1479 1480 1483 1485 1489 1493 1496 1499 1501 1508 1512 1512 1512 1517 1517 1518 1518 1520 1518 1519 1520 1520 1518 1519
1382 1383 1389 1393 1396 1399 1405 1409 1413 1421 1428 1432 1437 1441 1445 1449 1455 1461 1467 1473 1476 1480 1483 1485 1488 1491 1495 1498 1504 1508 1508 1507 1512 1511 1515 1515 1516 1517 1517 1521 1520 1517 1514
1381 1382 1384 1388 1393 1397 1402 1407 1411 1415 1420 1427 1433 1437 1442 1444 1448 1455 1461 1467 1471 1475 1478 1482 1486 1490 1495 1500 1503 1505 1506 1507 1507 1508 1509 1510 1512 1512 1514 1517 1519 1515 1513
1378 1379 1382 1386 1387 1393 1398 1403 1408 1411 1418 1423 1427 1432 1437 1440 1447 1454 1459 1461 1464 1469 1475 1479 1482 1487 1491 1496 1499 1500 1501 1502 1502 1501 1504 1504 1507 1509 1510 1514 1515 1513 1512
1376 1377 1379 1380 1382 1387 1391 1397 1403 1408 1412 1417 1422 1427 1430 1435 1444 1451 1453 1457 1460 1465 1469 1472 1477 1482 1487 1491 1494 1495 1499 1497 1497 1498 1499 1501 1503 1507 1506 1513 1514 1511 1510